Home   Weather   Marseille   Past weeks

Flag for France Past Weather in Marseille, Provence-Alpes-Côte d'Azur, France — Yesterday and Last 2 Weeks

Now
70 °F

Clear.


Feels Like: 70 °F
Forecast: 67 / 72 °F
Wind: 2 mph from North

Location: Marseille / Marignane

Current Time: Sep 30, 2016 at 8:38:21 PM

Latest Report: Sep 30, 2016 at 8:00 PM


Visibility: 10 mi

Pressure: 30.07 "Hg

Humidity: 78%

Dew Point: 63 °F

Location of MarseilleLocation

Past Weather in Marseille — Graph

°F

Marseille Temperature Yesterday

Maximum temperature yesterday: 81 °F (at 3:00 PM)
Minimum temperature yesterday: 55 °F (at 7:00 AM)
Average temperature yesterday: 67 °F

High & Low Weather Summary for the Past Weeks

 TemperatureHumidityPressure
High81 °F (Sep 23, 3:00 PM)94% (Sep 26, 6:00 AM)30.39 "Hg (Sep 26, 6:00 AM)
Low54 °F (Sep 22, 5:00 AM)32% (Sep 21, 3:00 PM)29.86 "Hg (Sep 19, 1:00 PM)
Average68 °F65%30.08 "Hg
* Reported Sep 15 7:00 PM — Sep 30 7:00 PM, Marseille, Weather by CustomWeather, © 2016

Note: Actual official high and low records may vary slightly from our data, if they occured in-between our weather recording intervals... More about our weather records

Advertising

Marseille Weather History for the Previous 24 Hours

Scroll right to see more
 ConditionsComfort  
Time TempWeatherWind HumidityBarometerVisibility
7:00 PM
Fri, Sep 30
72 °FSunny.12 mph69%30.07 "Hg10 mi
6:30 PM73 °FSunny.13 mph65%30.07 "Hg10 mi
6:00 PM73 °FSunny.14 mph61%30.07 "Hg10 mi
5:30 PM75 °FPassing clouds.13 mph61%30.07 "HgN/A
5:00 PM73 °FPassing clouds.13 mph69%30.07 "HgN/A
4:30 PM75 °FPassing clouds.14 mph65%30.07 "HgN/A
4:00 PM75 °FScattered clouds.13 mph69%30.09 "HgN/A
3:30 PM73 °FPartly sunny.10 mph74%30.09 "HgN/A
3:00 PM73 °FPartly sunny.10 mph74%30.09 "HgN/A
2:30 PM72 °FBroken clouds.15 mph78%30.12 "HgN/A
2:00 PM68 °FPartly sunny.9 mph88%30.12 "HgN/A
1:30 PM70 °FLight rain. Fog.13 mph83%30.15 "Hg3 mi
1:00 PM73 °FMostly cloudy.8 mph61%30.15 "HgN/A
12:30 PM73 °FPartly sunny.8 mph61%30.15 "HgN/A
12:00 PM75 °FBroken clouds.5 mph57%30.15 "HgN/A
11:30 AM73 °FPartly sunny.6 mph57%30.15 "HgN/A
11:00 AM73 °FPassing clouds.9 mph57%30.15 "HgN/A
10:30 AM72 °FSunny.10 mph61%30.15 "Hg10 mi
10:00 AM70 °FPassing clouds.10 mph64%30.15 "HgN/A
9:30 AM66 °FPassing clouds.7 mph73%30.15 "HgN/A
9:00 AM64 °FPassing clouds.5 mph83%30.15 "HgN/A
8:30 AM63 °FSunny.7 mph83%30.15 "Hg10 mi
8:00 AM63 °FSunny.2 mph83%30.15 "Hg10 mi
7:30 AM63 °FPassing clouds.6 mph83%30.15 "HgN/A
7:00 AM63 °FPassing clouds.7 mph88%30.15 "HgN/A
6:30 AM63 °FPassing clouds.7 mph88%30.12 "HgN/A
6:00 AM63 °FClear.7 mph88%30.12 "Hg10 mi
5:30 AM63 °FClear.7 mph83%30.12 "Hg10 mi
5:00 AM63 °FClear.No wind88%30.15 "Hg6 mi
4:30 AM63 °FClear.3 mph88%30.15 "Hg10 mi
4:00 AM63 °FPassing clouds.3 mph88%30.15 "HgN/A
3:30 AM63 °FPassing clouds.2 mph88%30.18 "HgN/A
3:00 AM63 °FClear.2 mph88%30.18 "Hg5 mi
2:30 AM63 °FClear.2 mph88%30.18 "Hg5 mi
2:00 AM64 °FClear.1 mph88%30.18 "Hg5 mi
1:30 AM61 °FClear.5 mph94%30.21 "Hg4 mi
1:00 AM63 °FClear.6 mph88%30.21 "Hg5 mi
12:30 AM63 °FClear.6 mph88%30.21 "Hg5 mi
12:00 AM63 °FClear.5 mph88%30.21 "Hg10 mi
11:30 PM
Thu, Sep 29
64 °FClear.5 mph88%30.21 "Hg10 mi
11:00 PM64 °FClear.6 mph88%30.21 "Hg10 mi
10:30 PM64 °FClear.5 mph88%30.21 "Hg10 mi
10:00 PM66 °FClear.6 mph83%30.21 "Hg10 mi
9:30 PM66 °FClear.6 mph83%30.21 "Hg10 mi
9:00 PM68 °FClear.3 mph78%30.21 "Hg10 mi
8:30 PM70 °FClear.3 mph73%30.21 "Hg10 mi
8:00 PM70 °FClear.5 mph78%30.21 "Hg10 mi
Weather by CustomWeather, © 2016

See weather overviewHow to use our weather pages